User: anonymous   Login
Location: Antichan
(42.9728°N, 0.6667°E)
Time: 07:47:38
(UTC+00:00)
Language:

IGS 5A - Orbit

View from above orbital plane
View from above orbital plane
View from above satellite
View from above satellite

Ground track
Ground track

The orbit data is extracted from the following two-line orbital elements,

1 36104U 09066A   20283.84021660 0.00000100  00000-0  94345-5 0    01
2 36104  97.5788 341.8585 0003386  42.6649 317.3349 14.93835581    02
Epoch (UTC): 09 October 2020 20:09:54
Eccentricity: 0.0003386
inclination: 97.5788°
perigee height: 583 km
apogee height: 588 km
right ascension of ascending node: 341.8585°
argument of perigee: 42.6649°
revolutions per day: 14.93835581
mean anomaly at epoch: 317.3349°
orbit number at epoch: 0

The dashed part of the orbit path shows where the satellite is in the earth's shadow,  

DLR